Regional Weather Roundup
Issued by NWS Newport/Morehead, NC

Current Version | Previous Version | Text Only | Print | Product List | Glossary Off
Versions: 1 2 3 4 5 6 7 8 9 10 11 12 13 14 15 16 17 18 19 20 21 22 23 24 25 26 27 28 29 30 31 32 33 34 35 36 37 38 39 40 41 42 43 44 45 46 47 48 49 50
000 ASUS42 KMHX 072125 RWRMHX WEATHER ROUNDUP FOR EASTERN NORTH CAROLINA NATIONAL WEATHER SERVICE NEWPORT/MOREHEAD CITY NC 500 PM EDT TUE JUL 07 2015 NOTE: "FAIR" INDICATES FEW OR NO CLOUDS BELOW 12,000 FEET WITH NO SIGNIFICANT WEATHER AND/OR OBSTRUCTIONS TO VISIBILITY NCZ015>017-031-032-045>047-102-103-072200- NORTH COAST CITY SKY/WX TMP DP RH WIND PRES REMARKS EDENTON N/A 89 73 58 S9 30.07R ELIZABETH CITY SUNNY 89 72 56 S14 30.06F KITTY HAWK CLEAR 90 75 61 S9 30.07S MANTEO SUNNY 86 76 72 S20 30.08S $$ NCZ045>047-081-094-103-104-072200- CENTRAL COAST CITY SKY/WX TMP DP RH WIND PRES REMARKS FRISCO SUNNY 82 74 76 SW14 30.12S SWANQUARTER N/A 88 N/A N/A S15G22 30.06R $$ NCZ095-097-098-100-101-072200- SOUTHERN COAST CITY SKY/WX TMP DP RH WIND PRES REMARKS BEAUFORT SUNNY 84 75 74 S20 30.12S CEDAR ISLAND N/A 88 N/A N/A S8G20 30.15S JACKSONVILLE MOSUNNY 83 72 69 S12 30.10S PINEY ISLAND CLEAR N/A N/A N/A SW14 30.10F WILMINGTON MOSUNNY 88 71 57 S18 30.11S $$ NCZ011>013-027>030-043-044-078>080-089-090>093-098-072200- COASTAL PLAIN CITY SKY/WX TMP DP RH WIND PRES REMARKS AHOSKIE MOSUNNY 89 71 55 S5 30.06R CLINTON MOSUNNY 91 73 55 SW6 30.08S HX 100 ELIZABETHTOWN MOSUNNY 87 73 62 S14 30.11R GOLDSBORO MOSUNNY 92 69 47 SW9 30.05F GREENVILLE SUNNY 91 72 52 SW8 30.08S HAVELOCK SUNNY 87 71 58 SW16G23 30.11S KENANSVILLE MOSUNNY 90 67 46 SW3 30.09S KINSTON SUNNY 91 68 46 S10 30.07F NEW BERN MOSUNNY 88 73 61 S13G18 30.10S RICHLANDS PTSUNNY 84 73 70 S14G20 30.10R ROCKY MOUNT MOSUNNY 93 70 46 S9G17 30.06F WASHINGTON MOSUNNY 90 71 53 S7 30.07S WHITEVILLE PTSUNNY 83 73 72 CALM 30.10F $$ AMZ130-135-150-152-154-156-158-170-250-252-270-ANZ085-086-088-633-658-670-072200- MARINE OBSERVATIONS STATION/POSITION TIME TEMP WIND PRES WAVE SWELL AIR SEA DIR/SP/G HT/PER HT/PER (UTC) (F) (DEG/KT/KT) (MB) (FT/S) (FT/S) CHESAPEAKE LIGHT 2100 81 170/ 16/ 17 1017.8 64 E VA BEACH 2050 79 78 190/ 14/ 16 1018.0 3/ 8 2/ 8 DUCK 2100 88 74 210/ 10/ 12 N/A 2 E DUCK 2011 77 N/A 2/12 2/12 OREGON INLET 2100 82 85 190/ 19/ 21 1018.8 13E OREGON INLT 2100 80 N/A 3/13 2/13 HATTERAS CG 2100 82 81 200/ 11/ 15 1019.5 DIAMOND BUOY 2050 82 84 210/ 17/ 19 1019.5 3/ 8 2/ 8 CAPE LOOKOUT 2100 82 200/ 14/ 17 1019.6 BEAUFORT LAB 2100 82 83 200/ 15/ 18 1019.1 30 SE NEW RVR IN NOT AVBL 27 SE WRIGHTSVLE 2000 81 210/ 12/ 14 N/A 5 SE WRIGHTSVLE 2008 81 79 200/ 14/ 17 1019.9 225 S CAPE HAT 2050 83 81 210/ 10/ 12 1022.3 4/ 8 3/ 8 41 SE CHARLESTON 2050 83 83 190/ 12/ 14 1019.7 3/ 9 3/ 9 $$

USA.gov is the U.S. government's official web portal to all federal, state and local government web resources and services.